User: anonymous   Login
Location: Bayshore Village Mobile Home Park
(26.6945°N, 81.8642°W)
Time: 15:40:29
(UTC+00:00)
Language:

Cosmos 1656 Rocket - Orbit

View from above orbital plane
View from above orbital plane
View from above satellite
View from above satellite

Ground track
Ground track

The orbit data is extracted from the following two-line orbital elements,

1 15772U 85042D   21262.87190582  .00000081  00000-0  58677-4 0  9990
2 15772  71.1071 293.0086 0034090 147.4161  24.3464 14.21300416882484
Epoch (UTC): 19 September 2021 20:55:32
Eccentricity: 0.0034090
inclination: 71.1071°
perigee height: 796 km
apogee height: 845 km
right ascension of ascending node: 293.0086°
argument of perigee: 147.4161°
revolutions per day: 14.21300416
mean anomaly at epoch: 24.3464°
orbit number at epoch: 88248

The dashed part of the orbit path shows where the satellite is in the earth's shadow,  

DLR